Terminal Aerodrome Forecast
Issued by NWS

Home | Current Version | Previous Version | Text Only | Print | Product List | Glossary Off
Versions: 1 2 3 4 5 6 7 8 9 10 11 12 13

000
FTUS43 KBIS 162300
TAFDIK
TAF
KDIK 162331Z 1700/1724 05005KT P6SM SKC
     FM170900 11004KT P6SM FEW250=

USA.gov is the U.S. government's official web portal to all federal, state and local government web resources and services.